Total_Precipitation_Accumulation
0.00 0.00 0.05 0.02 0.00 0.01 0.02 0.00 0.00 0.00 0.01 0.01 0.01 0.01 0.01 0.00 0.00 0.00 0.00 0.01 0.01 0.01 0.01 0.01 0.01 0.01 0.01 0.01 0.00 0.00 0.00 0.00 0.00 0.00 0.01 0.01 0.01 0.02 0.03 0.03 0.05 0.09 0.03
0.00 0.00 0.02 0.01 0.01 0.01 0.02 0.01 0.00 0.00 0.00 0.00 0.00 0.00 0.01 0.01 0.00 0.00 0.00 0.01 0.00 0.00 0.00 0.00 0.00 0.00 0.00 0.00 0.00 0.00 0.00 0.00 0.00 0.00 0.01 0.01 0.01 0.02 0.03 0.02 0.05 0.05 0.01
0.00 0.00 0.01 0.00 0.01 0.02 0.01 0.01 0.01 0.00 0.00 0.01 0.01 0.02 0.01 0.01 0.00 0.01 0.00 0.00 0.00 0.00 0.00 0.00 0.00 0.00 0.00 0.00 0.00 0.00 0.00 0.00 0.00 0.00 0.01 0.02 0.01 0.01 0.02 0.01 0.01 0.01 0.01
0.00 0.00 0.00 0.01 0.01 0.01 0.01 0.01 0.01 0.01 0.00 0.01 0.05 0.05 0.04 0.01 0.01 0.01 0.00 0.00 0.00 0.00 0.00 0.00 0.00 0.00 0.00 0.00 0.01 0.00 0.00 0.00 0.00 0.00 0.02 0.11 0.06 0.02 0.02 0.02 0.01 0.01 0.01
0.00 0.00 0.00 0.00 0.01 0.00 0.01 0.02 0.03 0.02 0.01 0.03 0.08 0.09 0.07 0.02 0.02 0.03 0.01 0.01 0.00 0.01 0.00 0.00 0.01 0.00 0.00 0.01 0.01 0.00 0.00 0.00 0.00 0.00 0.02 0.10 0.14 0.05 0.04 0.06 0.05 0.03 0.02
0.00 0.00 0.00 0.01 0.01 0.00 0.01 0.01 0.04 0.06 0.04 0.05 0.08 0.09 0.07 0.05 0.08 0.07 0.02 0.01 0.01 0.02 0.01 0.00 0.01 0.00 0.00 0.01 0.01 0.01 0.01 0.01 0.01 0.01 0.02 0.03 0.12 0.13 0.12 0.20 0.23 0.17 0.09
0.00 0.00 0.00 0.01 0.00 0.00 0.00 0.01 0.02 0.04 0.05 0.07 0.08 0.06 0.04 0.03 0.03 0.03 0.02 0.01 0.01 0.01 0.01 0.01 0.01 0.01 0.01 0.01 0.01 0.01 0.01 0.01 0.01 0.02 0.02 0.05 0.11 0.12 0.19 0.38 0.50 0.45 0.34
0.00 0.00 0.00 0.01 0.00 0.00 0.00 0.00 0.01 0.01 0.01 0.01 0.02 0.02 0.01 0.01 0.02 0.03 0.03 0.02 0.02 0.02 0.02 0.02 0.01 0.02 0.03 0.02 0.02 0.03 0.03 0.02 0.01 0.01 0.04 0.06 0.07 0.09 0.30 0.48 0.60 0.62 0.58
0.00 0.00 0.00 0.01 0.00 0.00 0.00 0.00 0.00 0.01 0.01 0.01 0.01 0.01 0.01 0.01 0.02 0.03 0.06 0.06 0.05 0.05 0.06 0.05 0.03 0.03 0.03 0.04 0.03 0.04 0.04 0.03 0.03 0.03 0.04 0.08 0.10 0.24 0.57 0.67 0.66 0.71 0.72
0.00 0.00 0.00 0.01 0.00 0.00 0.00 0.00 0.00 0.01 0.01 0.01 0.01 0.01 0.01 0.01 0.02 0.05 0.08 0.08 0.10 0.13 0.14 0.09 0.06 0.05 0.05 0.03 0.03 0.04 0.04 0.04 0.03 0.03 0.06 0.06 0.12 0.36 0.69 0.80 0.81 0.80 0.79
0.00 0.01 0.01 0.01 0.01 0.00 0.00 0.00 0.01 0.01 0.01 0.01 0.02 0.02 0.02 0.03 0.06 0.13 0.17 0.24 0.24 0.26 0.23 0.18 0.14 0.13 0.13 0.08 0.10 0.14 0.09 0.03 0.03 0.03 0.05 0.06 0.16 0.37 0.63 0.77 0.81 0.85 0.80
0.00 0.01 0.01 0.01 0.01 0.01 0.00 0.01 0.01 0.02 0.04 0.04 0.06 0.11 0.15 0.21 0.18 0.09 0.16 0.35 0.46 0.51 0.45 0.42 0.41 0.33 0.28 0.23 0.50 0.62 0.17 0.11 0.07 0.06 0.10 0.15 0.28 0.48 0.72 0.75 0.74 0.78 0.74
0.01 0.01 0.01 0.01 0.01 0.01 0.01 0.01 0.01 0.02 0.07 0.06 0.08 0.15 0.22 0.22 0.15 0.08 0.11 0.24 0.43 0.52 0.41 0.54 0.64 0.47 0.48 0.56 0.55 0.57 0.29 0.22 0.21 0.17 0.18 0.30 0.46 0.68 0.98 0.91 0.76 0.71 0.67
0.01 0.02 0.01 0.01 0.02 0.02 0.02 0.01 0.01 0.02 0.04 0.05 0.11 0.12 0.19 0.24 0.18 0.17 0.19 0.22 0.31 0.40 0.52 0.56 0.67 0.66 0.63 0.57 0.57 0.54 0.48 0.48 0.40 0.46 0.43 0.39 0.49 0.68 1.02 1.00 0.78 0.72 0.65
0.05 0.06 0.06 0.04 0.04 0.04 0.04 0.04 0.05 0.07 0.09 0.11 0.15 0.15 0.17 0.24 0.25 0.28 0.26 0.25 0.24 0.33 0.44 0.54 0.60 0.81 0.89 0.70 0.57 0.55 0.55 0.62 0.61 0.70 0.65 0.57 0.56 0.65 0.86 0.97 0.87 0.80 0.71
0.11 0.15 0.17 0.18 0.21 0.20 0.19 0.19 0.23 0.24 0.25 0.24 0.25 0.27 0.27 0.32 0.37 0.39 0.36 0.39 0.37 0.42 0.49 0.62 0.76 1.00 0.98 0.93 0.75 0.64 0.61 0.59 0.56 0.62 0.64 0.68 0.68 0.66 0.67 0.76 0.81 0.76 0.69
0.23 0.30 0.35 0.43 0.49 0.50 0.47 0.48 0.51 0.49 0.47 0.49 0.52 0.54 0.51 0.51 0.55 0.54 0.46 0.47 0.61 0.73 0.78 0.80 0.96 1.15 0.97 1.01 0.84 0.78 0.68 0.60 0.51 0.51 0.59 0.61 0.58 0.59 0.63 0.68 0.68 0.65 0.65
0.44 0.51 0.66 0.77 0.82 0.84 0.88 0.93 0.96 0.91 0.86 0.83 0.82 0.83 0.74 0.69 0.70 0.76 0.64 0.64 1.00 1.08 1.08 1.19 1.33 1.32 1.20 1.17 1.03 0.86 0.69 0.62 0.51 0.46 0.43 0.47 0.50 0.48 0.56 0.65 0.62 0.57 0.62
0.87 1.04 1.26 1.36 1.35 1.31 1.38 1.42 1.38 1.22 1.08 1.00 0.93 0.91 0.84 0.84 0.85 0.98 0.90 1.04 1.33 1.33 1.29 1.30 1.53 1.47 1.30 1.28 1.20 0.95 0.67 0.55 0.42 0.37 0.32 0.29 0.33 0.39 0.40 0.44 0.46 0.49 0.62
1.34 1.65 1.72 1.83 2.05 2.05 2.03 1.87 1.57 1.22 1.02 0.98 0.98 0.91 0.90 0.96 1.05 1.27 1.16 1.22 1.40 1.46 1.41 1.40 1.35 1.38 1.24 1.25 1.21 0.94 0.63 0.43 0.36 0.30 0.26 0.22 0.20 0.21 0.25 0.31 0.36 0.36 0.48
1.55 1.84 2.11 2.34 2.46 2.33 2.10 1.87 1.66 1.43 1.31 1.16 1.07 1.01 0.94 0.94 1.05 1.29 1.21 1.29 1.38 1.33 1.29 1.38 1.37 1.24 1.02 1.20 1.23 0.89 0.54 0.40 0.35 0.24 0.21 0.18 0.17 0.15 0.17 0.24 0.31 0.36 0.40
1.58 1.96 2.21 2.48 2.52 2.28 2.03 1.89 1.83 1.74 1.45 1.21 1.21 1.16 1.11 1.13 1.13 1.22 1.24 1.23 1.27 1.28 1.17 1.13 1.20 1.09 0.89 1.05 1.14 1.06 0.59 0.39 0.32 0.26 0.29 0.34 0.31 0.26 0.24 0.27 0.30 0.40 0.47
1.47 1.69 1.86 1.95 1.92 1.79 1.75 1.80 1.82 1.82 1.58 1.51 1.54 1.56 1.51 1.51 1.45 1.41 1.32 1.18 1.04 1.02 0.92 0.93 1.03 1.04 0.92 0.92 1.09 1.21 0.88 0.58 0.50 0.36 0.37 0.38 0.39 0.39 0.37 0.39 0.39 0.46 0.53
1.44 1.61 1.76 1.74 1.59 1.47 1.51 1.68 1.77 1.74 1.70 1.81 2.00 1.90 1.67 1.49 1.31 1.14 1.01 0.96 0.88 0.85 0.75 0.73 0.80 0.81 0.79 0.77 0.85 0.98 1.06 1.05 0.92 0.50 0.31 0.28 0.35 0.40 0.46 0.44 0.39 0.43 0.52
1.22 1.31 1.46 1.54 1.46 1.42 1.44 1.51 1.61 1.64 1.63 1.63 1.61 1.53 1.40 1.22 1.00 0.83 0.75 0.71 0.67 0.65 0.58 0.56 0.55 0.55 0.58 0.61 0.70 0.81 0.93 1.02 1.06 0.90 0.53 0.46 0.49 0.47 0.50 0.46 0.46 0.48 0.50
1.00 1.01 0.99 1.06 1.13 1.20 1.24 1.27 1.28 1.25 1.21 1.15 1.06 1.02 0.95 0.84 0.65 0.51 0.46 0.48 0.53 0.57 0.51 0.47 0.45 0.46 0.51 0.58 0.65 0.72 0.79 0.79 0.86 0.96 0.76 0.63 0.55 0.49 0.52 0.56 0.57 0.62 0.59